Year,Month,Day,Hour,Minute,Value (Times are PST for temperature in C)
2016,06,15,00,00,9.10
2016,06,15,00,01,9.10
2016,06,15,00,02,9.10
2016,06,15,00,03,9.10
2016,06,15,00,04,9.10
2016,06,15,00,05,9.10
2016,06,15,00,06,9.10
2016,06,15,00,07,9.10
2016,06,15,00,08,9.10
2016,06,15,00,09,9.10
2016,06,15,00,10,9.10
2016,06,15,00,11,9.10
2016,06,15,00,12,9.10
2016,06,15,00,13,9.10
2016,06,15,00,14,9.10
2016,06,15,00,15,9.10
2016,06,15,00,16,9.10
2016,06,15,00,17,9.10
2016,06,15,00,18,9.10
2016,06,15,00,19,9.00
2016,06,15,00,20,9.00
2016,06,15,00,21,9.00
2016,06,15,00,22,9.00
2016,06,15,00,23,9.00
2016,06,15,00,24,9.00
2016,06,15,00,25,9.00
2016,06,15,00,26,9.00
2016,06,15,00,27,9.00
2016,06,15,00,28,8.90
2016,06,15,00,29,8.90
2016,06,15,00,30,8.90
2016,06,15,00,31,8.90
2016,06,15,00,32,8.90
2016,06,15,00,33,8.90
2016,06,15,00,34,8.90
2016,06,15,00,35,8.90
2016,06,15,00,36,8.80
2016,06,15,00,37,8.80
2016,06,15,00,38,8.70
2016,06,15,00,39,8.70
2016,06,15,00,40,8.70
2016,06,15,00,41,8.70
2016,06,15,00,42,8.70
2016,06,15,00,43,8.60
2016,06,15,00,44,8.60
2016,06,15,00,45,8.50
2016,06,15,00,46,8.50
2016,06,15,00,47,8.50
2016,06,15,00,48,8.40
2016,06,15,00,49,8.40
2016,06,15,00,50,8.40
2016,06,15,00,51,8.40
2016,06,15,00,52,8.30
2016,06,15,00,53,8.30
2016,06,15,00,54,8.30
2016,06,15,00,55,8.30
2016,06,15,00,56,8.20
2016,06,15,00,57,8.20
2016,06,15,00,58,8.20
2016,06,15,00,59,8.20
2016,06,15,01,00,8.20
2016,06,15,01,01,8.20
2016,06,15,01,02,8.20
2016,06,15,01,03,8.20
2016,06,15,01,04,8.10
2016,06,15,01,05,8.10
2016,06,15,01,06,8.10
2016,06,15,01,07,8.00
2016,06,15,01,08,8.00
2016,06,15,01,09,8.00
2016,06,15,01,10,8.00
2016,06,15,01,11,7.90
2016,06,15,01,12,7.90
2016,06,15,01,13,7.90
2016,06,15,01,14,7.90
2016,06,15,01,15,7.90
2016,06,15,01,16,7.90
2016,06,15,01,17,7.80
2016,06,15,01,18,7.80
2016,06,15,01,19,7.80
2016,06,15,01,20,7.80
2016,06,15,01,21,7.80
2016,06,15,01,22,7.80
2016,06,15,01,23,7.80
2016,06,15,01,24,7.80
2016,06,15,01,25,7.80
2016,06,15,01,26,7.80
2016,06,15,01,27,7.80
2016,06,15,01,28,7.80
2016,06,15,01,29,7.80
2016,06,15,01,30,7.80
2016,06,15,01,31,7.80
2016,06,15,01,32,7.80
2016,06,15,01,33,7.80
2016,06,15,01,34,7.80
2016,06,15,01,35,7.70
2016,06,15,01,36,7.70
2016,06,15,01,37,7.70
2016,06,15,01,38,7.70
2016,06,15,01,39,7.70
2016,06,15,01,40,7.60
2016,06,15,01,41,7.60
2016,06,15,01,42,7.60
2016,06,15,01,43,7.60
2016,06,15,01,44,7.60
2016,06,15,01,45,7.60
2016,06,15,01,46,7.50
2016,06,15,01,47,7.50
2016,06,15,01,48,7.50
2016,06,15,01,49,7.50
2016,06,15,01,50,7.50
2016,06,15,01,51,7.50
2016,06,15,01,52,7.50
2016,06,15,01,53,7.50
2016,06,15,01,54,7.50
2016,06,15,01,55,7.50
2016,06,15,01,56,7.50
2016,06,15,01,57,7.40
2016,06,15,01,58,7.40
2016,06,15,01,59,7.40
2016,06,15,02,00,7.40
2016,06,15,02,01,7.40
2016,06,15,02,02,7.40
2016,06,15,02,03,7.40
2016,06,15,02,04,7.40
2016,06,15,02,05,7.50
2016,06,15,02,06,7.50
2016,06,15,02,07,7.50
2016,06,15,02,08,7.50
2016,06,15,02,09,7.50
2016,06,15,02,10,7.50
2016,06,15,02,11,7.50
2016,06,15,02,12,7.50
2016,06,15,02,13,7.50
2016,06,15,02,14,7.50
2016,06,15,02,15,7.50
2016,06,15,02,16,7.50
2016,06,15,02,17,7.50
2016,06,15,02,18,7.50
2016,06,15,02,19,7.50
2016,06,15,02,20,7.50
2016,06,15,02,21,7.50
2016,06,15,02,22,7.50
2016,06,15,02,23,7.50
2016,06,15,02,24,7.50
2016,06,15,02,25,7.50
2016,06,15,02,26,7.50
2016,06,15,02,27,7.50
2016,06,15,02,28,7.50
2016,06,15,02,29,7.50
2016,06,15,02,30,7.50
2016,06,15,02,31,7.50
2016,06,15,02,32,7.60
2016,06,15,02,33,7.60
2016,06,15,02,34,7.60
2016,06,15,02,35,7.60
2016,06,15,02,36,7.50
2016,06,15,02,37,7.50
2016,06,15,02,38,7.50
2016,06,15,02,39,7.50
2016,06,15,02,40,7.40
2016,06,15,02,41,7.40
2016,06,15,02,42,7.40
2016,06,15,02,43,7.40
2016,06,15,02,44,7.30
2016,06,15,02,45,7.30
2016,06,15,02,46,7.30
2016,06,15,02,47,7.30
2016,06,15,02,48,7.30
2016,06,15,02,49,7.30
2016,06,15,02,50,7.30
2016,06,15,02,51,7.30
2016,06,15,02,52,7.30
2016,06,15,02,53,7.20
2016,06,15,02,54,7.20
2016,06,15,02,55,7.20
2016,06,15,02,56,7.20
2016,06,15,02,57,7.20
2016,06,15,02,58,7.20
2016,06,15,02,59,7.20
2016,06,15,03,00,7.20
2016,06,15,03,01,7.20
2016,06,15,03,02,7.20
2016,06,15,03,03,7.20
2016,06,15,03,04,7.30
2016,06,15,03,05,7.30
2016,06,15,03,06,7.30
2016,06,15,03,07,7.30
2016,06,15,03,08,7.30
2016,06,15,03,09,7.20
2016,06,15,03,10,7.20
2016,06,15,03,11,7.20
2016,06,15,03,12,7.20
2016,06,15,03,13,7.20
2016,06,15,03,14,7.10
2016,06,15,03,15,7.10
2016,06,15,03,16,7.10
2016,06,15,03,17,7.10
2016,06,15,03,18,7.10
2016,06,15,03,19,7.10
2016,06,15,03,20,7.10
2016,06,15,03,21,7.10
2016,06,15,03,22,7.00
2016,06,15,03,23,7.00
2016,06,15,03,24,7.00
2016,06,15,03,25,7.00
2016,06,15,03,26,7.00
2016,06,15,03,27,7.00
2016,06,15,03,28,7.00
2016,06,15,03,29,6.90
2016,06,15,03,30,6.90
2016,06,15,03,31,6.90
2016,06,15,03,32,6.90
2016,06,15,03,33,6.90
2016,06,15,03,34,6.90
2016,06,15,03,35,6.90
2016,06,15,03,36,6.90
2016,06,15,03,37,6.90
2016,06,15,03,38,6.90
2016,06,15,03,39,6.90
2016,06,15,03,40,6.90
2016,06,15,03,41,6.90
2016,06,15,03,42,6.90
2016,06,15,03,43,6.90
2016,06,15,03,44,6.90
2016,06,15,03,45,6.90
2016,06,15,03,46,6.90
2016,06,15,03,47,6.90
2016,06,15,03,48,6.90
2016,06,15,03,49,6.90
2016,06,15,03,50,6.90
2016,06,15,03,51,6.90
2016,06,15,03,52,6.90
2016,06,15,03,53,6.90
2016,06,15,03,54,6.90
2016,06,15,03,55,6.90
2016,06,15,03,56,6.90
2016,06,15,03,57,6.90
2016,06,15,03,58,6.90
2016,06,15,03,59,6.90
2016,06,15,04,00,6.90
2016,06,15,04,01,6.90
2016,06,15,04,02,6.80
2016,06,15,04,03,6.80
2016,06,15,04,04,6.80
2016,06,15,04,05,6.80
2016,06,15,04,06,6.80
2016,06,15,04,07,6.80
2016,06,15,04,08,6.80
2016,06,15,04,09,6.80
2016,06,15,04,10,6.80
2016,06,15,04,11,6.80
2016,06,15,04,12,6.80
2016,06,15,04,13,6.80
2016,06,15,04,14,6.80
2016,06,15,04,15,6.80
2016,06,15,04,16,6.80
2016,06,15,04,17,6.80
2016,06,15,04,18,6.80
2016,06,15,04,19,6.80
2016,06,15,04,20,6.80
2016,06,15,04,21,6.80
2016,06,15,04,22,6.80
2016,06,15,04,23,6.80
2016,06,15,04,24,6.80
2016,06,15,04,25,6.80
2016,06,15,04,26,6.80
2016,06,15,04,27,6.80
2016,06,15,04,28,6.80
2016,06,15,04,29,6.90
2016,06,15,04,30,6.90
2016,06,15,04,31,6.90
2016,06,15,04,32,6.90
2016,06,15,04,33,6.90
2016,06,15,04,34,6.90
2016,06,15,04,35,6.90
2016,06,15,04,36,6.90
2016,06,15,04,37,7.00
2016,06,15,04,38,7.00
2016,06,15,04,39,7.00
2016,06,15,04,40,7.00
2016,06,15,04,41,7.00
2016,06,15,04,42,7.00
2016,06,15,04,43,7.00
2016,06,15,04,44,7.00
2016,06,15,04,45,7.00
2016,06,15,04,46,7.00
2016,06,15,04,47,7.00
2016,06,15,04,48,7.00
2016,06,15,04,49,7.00
2016,06,15,04,50,7.10
2016,06,15,04,51,7.10
2016,06,15,04,52,7.10
2016,06,15,04,53,7.10
2016,06,15,04,54,7.10
2016,06,15,04,55,7.10
2016,06,15,04,56,7.10
2016,06,15,04,57,7.20
2016,06,15,04,58,7.20
2016,06,15,04,59,7.20
2016,06,15,05,00,7.20
2016,06,15,05,01,7.30
2016,06,15,05,02,7.30
2016,06,15,05,03,7.30
2016,06,15,05,04,7.30
2016,06,15,05,05,7.30
2016,06,15,05,06,7.30
2016,06,15,05,07,7.30
2016,06,15,05,08,7.30
2016,06,15,05,09,7.30
2016,06,15,05,10,7.30
2016,06,15,05,11,7.30
2016,06,15,05,12,7.30
2016,06,15,05,13,7.20
2016,06,15,05,14,7.20
2016,06,15,05,15,7.20
2016,06,15,05,16,7.20
2016,06,15,05,17,7.10
2016,06,15,05,18,7.10
2016,06,15,05,19,7.10
2016,06,15,05,20,7.10
2016,06,15,05,21,7.10
2016,06,15,05,22,7.10
2016,06,15,05,23,7.10
2016,06,15,05,24,7.10
2016,06,15,05,25,7.00
2016,06,15,05,26,7.00
2016,06,15,05,27,7.00
2016,06,15,05,28,7.00
2016,06,15,05,29,7.00
2016,06,15,05,30,7.00
2016,06,15,05,31,7.00
2016,06,15,05,32,7.00
2016,06,15,05,33,7.00
2016,06,15,05,34,7.00
2016,06,15,05,35,7.00
2016,06,15,05,36,7.00
2016,06,15,05,37,7.00
2016,06,15,05,38,7.00
2016,06,15,05,39,7.00
2016,06,15,05,40,7.00
2016,06,15,05,41,7.00
2016,06,15,05,42,7.00
2016,06,15,05,43,6.90
2016,06,15,05,44,6.90
2016,06,15,05,45,6.90
2016,06,15,05,46,6.90
2016,06,15,05,47,6.90
2016,06,15,05,48,6.80
2016,06,15,05,49,6.80
2016,06,15,05,50,6.80
2016,06,15,05,51,6.80
2016,06,15,05,52,6.80
2016,06,15,05,53,6.80
2016,06,15,05,54,6.80
2016,06,15,05,55,6.80
2016,06,15,05,56,6.80
2016,06,15,05,57,6.80
2016,06,15,05,58,6.80
2016,06,15,05,59,6.80
2016,06,15,06,00,6.80
2016,06,15,06,01,6.80
2016,06,15,06,02,6.80
2016,06,15,06,03,6.80
2016,06,15,06,04,6.80
2016,06,15,06,05,6.90
2016,06,15,06,06,6.90
2016,06,15,06,07,6.90
2016,06,15,06,08,6.90
2016,06,15,06,09,6.90
2016,06,15,06,10,7.00
2016,06,15,06,11,7.00
2016,06,15,06,12,7.00
2016,06,15,06,13,7.00
2016,06,15,06,14,7.00
2016,06,15,06,15,7.10
2016,06,15,06,16,7.10
2016,06,15,06,17,7.10
2016,06,15,06,18,7.10
2016,06,15,06,19,7.10
2016,06,15,06,20,7.20
2016,06,15,06,21,7.20
2016,06,15,06,22,7.20
2016,06,15,06,23,7.20
2016,06,15,06,24,7.20
2016,06,15,06,25,7.30
2016,06,15,06,26,7.30
2016,06,15,06,27,7.30
2016,06,15,06,28,7.30
2016,06,15,06,29,7.30
2016,06,15,06,30,7.30
2016,06,15,06,31,7.30
2016,06,15,06,32,7.30
2016,06,15,06,33,7.30
2016,06,15,06,34,7.30
2016,06,15,06,35,7.40
2016,06,15,06,36,7.40
2016,06,15,06,37,7.40
2016,06,15,06,38,7.40
2016,06,15,06,39,7.40
2016,06,15,06,40,7.40
2016,06,15,06,41,7.40
2016,06,15,06,42,7.40
2016,06,15,06,43,7.40
2016,06,15,06,44,7.40
2016,06,15,06,45,7.40
2016,06,15,06,46,7.40
2016,06,15,06,47,7.40
2016,06,15,06,48,7.40
2016,06,15,06,49,7.50
2016,06,15,06,50,7.50
2016,06,15,06,51,7.50
2016,06,15,06,52,7.50
2016,06,15,06,53,7.50
2016,06,15,06,54,7.50
2016,06,15,06,55,7.50
2016,06,15,06,56,7.60
2016,06,15,06,57,7.60
2016,06,15,06,58,7.60
2016,06,15,06,59,7.60
2016,06,15,07,00,7.60
2016,06,15,07,01,7.70
2016,06,15,07,02,7.70
2016,06,15,07,03,7.70
2016,06,15,07,04,7.80
2016,06,15,07,05,7.80
2016,06,15,07,06,7.80
2016,06,15,07,07,7.80
2016,06,15,07,08,7.80
2016,06,15,07,09,7.80
2016,06,15,07,10,7.80
2016,06,15,07,11,7.80
2016,06,15,07,12,7.80
2016,06,15,07,13,7.80
2016,06,15,07,14,7.90
2016,06,15,07,15,7.90
2016,06,15,07,16,7.90
2016,06,15,07,17,7.90
2016,06,15,07,18,7.90
2016,06,15,07,19,8.00
2016,06,15,07,20,8.00
2016,06,15,07,21,8.00
2016,06,15,07,22,8.00
2016,06,15,07,23,8.00
2016,06,15,07,24,8.00
2016,06,15,07,25,8.00
2016,06,15,07,26,8.00
2016,06,15,07,27,8.00
2016,06,15,07,28,8.00
2016,06,15,07,29,8.00
2016,06,15,07,30,8.10
2016,06,15,07,31,8.10
2016,06,15,07,32,8.10
2016,06,15,07,33,8.10
2016,06,15,07,34,8.10
2016,06,15,07,35,8.10
2016,06,15,07,36,8.10
2016,06,15,07,37,8.10
2016,06,15,07,38,8.10
2016,06,15,07,39,8.10
2016,06,15,07,40,8.10
2016,06,15,07,41,8.20
2016,06,15,07,42,8.20
2016,06,15,07,43,8.20
2016,06,15,07,44,8.20
2016,06,15,07,45,8.20
2016,06,15,07,46,8.20
2016,06,15,07,47,8.20
2016,06,15,07,48,8.20
2016,06,15,07,49,8.20
2016,06,15,07,50,8.20
2016,06,15,07,51,8.20
2016,06,15,07,52,8.20
2016,06,15,07,53,8.20
2016,06,15,07,54,8.20
2016,06,15,07,55,8.20
2016,06,15,07,56,8.20
2016,06,15,07,57,8.20
2016,06,15,07,58,8.20
2016,06,15,07,59,8.20
2016,06,15,08,00,8.20
2016,06,15,08,01,8.20
2016,06,15,08,02,8.20
2016,06,15,08,03,8.20
2016,06,15,08,04,8.20
2016,06,15,08,05,8.10
2016,06,15,08,06,8.10
2016,06,15,08,07,8.10
2016,06,15,08,08,8.10
2016,06,15,08,09,8.10
2016,06,15,08,10,8.10
2016,06,15,08,11,8.10
2016,06,15,08,12,8.10
2016,06,15,08,13,8.10
2016,06,15,08,14,8.10
2016,06,15,08,15,8.10
2016,06,15,08,16,8.10
2016,06,15,08,17,8.10
2016,06,15,08,18,8.10
2016,06,15,08,19,8.10
2016,06,15,08,20,8.10
2016,06,15,08,21,8.10
2016,06,15,08,22,8.10
2016,06,15,08,23,8.10
2016,06,15,08,24,8.10
2016,06,15,08,25,8.10
2016,06,15,08,26,8.10
2016,06,15,08,27,8.10
2016,06,15,08,28,8.10
2016,06,15,08,29,8.20
2016,06,15,08,30,8.20
2016,06,15,08,31,8.20
2016,06,15,08,32,8.20
2016,06,15,08,33,8.20
2016,06,15,08,34,8.20
2016,06,15,08,35,8.20
2016,06,15,08,36,8.20
2016,06,15,08,37,8.20
2016,06,15,08,38,8.20
2016,06,15,08,39,8.20
2016,06,15,08,40,8.20
2016,06,15,08,41,8.20
2016,06,15,08,42,8.20
2016,06,15,08,43,8.20
2016,06,15,08,44,8.20
2016,06,15,08,45,8.20
2016,06,15,08,46,8.20
2016,06,15,08,47,8.20
2016,06,15,08,48,8.20
2016,06,15,08,49,8.20
2016,06,15,08,50,8.20
2016,06,15,08,51,8.20
2016,06,15,08,52,8.20
2016,06,15,08,53,8.20
2016,06,15,08,54,8.20
2016,06,15,08,55,8.20
2016,06,15,08,56,8.20
2016,06,15,08,57,8.30
2016,06,15,08,58,8.30
2016,06,15,08,59,8.30
2016,06,15,09,00,8.40
2016,06,15,09,01,8.40
2016,06,15,09,02,8.50
2016,06,15,09,03,8.50
2016,06,15,09,04,8.60
2016,06,15,09,05,8.60
2016,06,15,09,06,8.70
2016,06,15,09,07,8.70
2016,06,15,09,08,8.70
2016,06,15,09,09,8.70
2016,06,15,09,10,8.80
2016,06,15,09,11,8.90
2016,06,15,09,12,8.90
2016,06,15,09,13,9.00
2016,06,15,09,14,9.00
2016,06,15,09,15,9.10
2016,06,15,09,16,9.20
2016,06,15,09,17,9.20
2016,06,15,09,18,9.20
2016,06,15,09,19,9.30
2016,06,15,09,20,9.30
2016,06,15,09,21,9.40
2016,06,15,09,22,9.50
2016,06,15,09,23,9.50
2016,06,15,09,24,9.60
2016,06,15,09,25,9.70
2016,06,15,09,26,9.70
2016,06,15,09,27,9.80
2016,06,15,09,28,9.80
2016,06,15,09,29,9.90
2016,06,15,09,30,9.90
2016,06,15,09,31,9.90
2016,06,15,09,32,10.00
2016,06,15,09,33,10.10
2016,06,15,09,34,10.10
2016,06,15,09,35,10.20
2016,06,15,09,36,10.20
2016,06,15,09,37,10.30
2016,06,15,09,38,10.30
2016,06,15,09,39,10.40
2016,06,15,09,40,10.40
2016,06,15,09,41,10.40
2016,06,15,09,42,10.50
2016,06,15,09,43,10.60
2016,06,15,09,44,10.60
2016,06,15,09,45,10.60
2016,06,15,09,46,10.60
2016,06,15,09,47,10.70
2016,06,15,09,48,10.70
2016,06,15,09,49,10.80
2016,06,15,09,50,10.80
2016,06,15,09,51,10.90
2016,06,15,09,52,10.90
2016,06,15,09,53,10.90
2016,06,15,09,54,11.00
2016,06,15,09,55,11.10
2016,06,15,09,56,11.10
2016,06,15,09,57,11.10
2016,06,15,09,58,11.10
2016,06,15,09,59,11.10
2016,06,15,10,00,11.20
2016,06,15,10,01,11.20
2016,06,15,10,02,11.20
2016,06,15,10,03,11.20
2016,06,15,10,04,11.20
2016,06,15,10,05,11.20
2016,06,15,10,06,11.30
2016,06,15,10,07,11.30
2016,06,15,10,08,11.30
2016,06,15,10,09,11.30
2016,06,15,10,10,11.30
2016,06,15,10,11,11.40
2016,06,15,10,12,11.40
2016,06,15,10,13,11.40
2016,06,15,10,14,11.40
2016,06,15,10,15,11.50
2016,06,15,10,16,11.60
2016,06,15,10,17,11.60
2016,06,15,10,18,11.60
2016,06,15,10,19,11.70
2016,06,15,10,20,11.70
2016,06,15,10,21,11.80
2016,06,15,10,22,11.80
2016,06,15,10,23,11.80
2016,06,15,10,24,11.80
2016,06,15,10,25,11.80
2016,06,15,10,26,11.90
2016,06,15,10,27,11.90
2016,06,15,10,28,12.00
2016,06,15,10,29,12.00
2016,06,15,10,30,12.00
2016,06,15,10,31,12.10
2016,06,15,10,32,12.10
2016,06,15,10,33,12.10
2016,06,15,10,34,12.20
2016,06,15,10,35,12.20
2016,06,15,10,36,12.20
2016,06,15,10,37,12.20
2016,06,15,10,38,12.20
2016,06,15,10,39,12.20
2016,06,15,10,40,12.20
2016,06,15,10,41,12.20
2016,06,15,10,42,12.30
2016,06,15,10,43,12.30
2016,06,15,10,44,12.20
2016,06,15,10,45,12.20
2016,06,15,10,46,12.10
2016,06,15,10,47,12.10
2016,06,15,10,48,12.00
2016,06,15,10,49,11.90
2016,06,15,10,50,11.80
2016,06,15,10,51,11.80
2016,06,15,10,52,11.70
2016,06,15,10,53,11.70
2016,06,15,10,54,11.60
2016,06,15,10,55,11.60
2016,06,15,10,56,11.60
2016,06,15,10,57,11.60
2016,06,15,10,58,11.50
2016,06,15,10,59,11.40
2016,06,15,11,00,11.40
2016,06,15,11,01,11.40
2016,06,15,11,02,11.40
2016,06,15,11,03,11.40
2016,06,15,11,04,11.30
2016,06,15,11,05,11.30
2016,06,15,11,06,11.30
2016,06,15,11,07,11.20
2016,06,15,11,08,11.20
2016,06,15,11,09,11.20
2016,06,15,11,10,11.20
2016,06,15,11,11,11.10
2016,06,15,11,12,11.10
2016,06,15,11,13,11.10
2016,06,15,11,14,11.10
2016,06,15,11,15,11.10
2016,06,15,11,16,11.10
2016,06,15,11,17,11.10
2016,06,15,11,18,11.10
2016,06,15,11,19,10.90
2016,06,15,11,20,10.90
2016,06,15,11,21,10.90
2016,06,15,11,22,10.90
2016,06,15,11,23,10.90
2016,06,15,11,24,10.90
2016,06,15,11,25,10.90
2016,06,15,11,26,10.80
2016,06,15,11,27,10.80
2016,06,15,11,28,10.70
2016,06,15,11,29,10.70
2016,06,15,11,30,10.60
2016,06,15,11,31,10.50
2016,06,15,11,32,10.40
2016,06,15,11,33,10.40
2016,06,15,11,34,10.30
2016,06,15,11,35,10.20
2016,06,15,11,36,10.20
2016,06,15,11,37,10.10
2016,06,15,11,38,9.90
2016,06,15,11,39,9.70
2016,06,15,11,40,9.50
2016,06,15,11,41,9.30
2016,06,15,11,42,9.00
2016,06,15,11,43,8.70
2016,06,15,11,44,8.60
2016,06,15,11,45,8.40
2016,06,15,11,46,8.20
2016,06,15,11,47,8.00
2016,06,15,11,48,7.90
2016,06,15,11,49,7.70
2016,06,15,11,50,7.40
2016,06,15,11,51,7.20
2016,06,15,11,52,7.10
2016,06,15,11,53,7.00
2016,06,15,11,54,6.80
2016,06,15,11,55,6.80
2016,06,15,11,56,6.60
2016,06,15,11,57,6.60
2016,06,15,11,58,6.50
2016,06,15,11,59,6.40
2016,06,15,12,00,6.40
2016,06,15,12,01,6.30
2016,06,15,12,02,6.30
2016,06,15,12,03,6.30
2016,06,15,12,04,6.30
2016,06,15,12,05,6.30
2016,06,15,12,06,6.30
2016,06,15,12,07,6.40
2016,06,15,12,08,6.40
2016,06,15,12,09,6.40
2016,06,15,12,10,6.40
2016,06,15,12,11,6.40
2016,06,15,12,12,6.60
2016,06,15,12,13,6.60
2016,06,15,12,14,6.60
2016,06,15,12,15,6.70
2016,06,15,12,16,6.80
2016,06,15,12,17,6.80
2016,06,15,12,18,6.90
2016,06,15,12,19,7.00
2016,06,15,12,20,7.10
2016,06,15,12,21,7.10
2016,06,15,12,22,7.20
2016,06,15,12,23,7.30
2016,06,15,12,24,7.40
2016,06,15,12,25,7.50
2016,06,15,12,26,7.70
2016,06,15,12,27,7.80
2016,06,15,12,28,7.90
2016,06,15,12,29,8.00
2016,06,15,12,30,8.00
2016,06,15,12,31,8.10
2016,06,15,12,32,8.20
2016,06,15,12,33,8.40
2016,06,15,12,34,8.60
2016,06,15,12,35,8.80
2016,06,15,12,36,9.00
2016,06,15,12,37,9.10
2016,06,15,12,38,9.20
2016,06,15,12,39,9.30
2016,06,15,12,40,9.30
2016,06,15,12,41,9.40
2016,06,15,12,42,9.50
2016,06,15,12,43,9.50
2016,06,15,12,44,9.50
2016,06,15,12,45,9.50
2016,06,15,12,46,9.60
2016,06,15,12,47,9.50
2016,06,15,12,48,9.40
2016,06,15,12,49,9.30
2016,06,15,12,50,9.20
2016,06,15,12,51,9.20
2016,06,15,12,52,9.10
2016,06,15,12,53,9.10
2016,06,15,12,54,9.20
2016,06,15,12,55,9.30
2016,06,15,12,56,9.40
2016,06,15,12,57,9.50
2016,06,15,12,58,9.70
2016,06,15,12,59,9.90
2016,06,15,13,00,10.00
2016,06,15,13,01,10.20
2016,06,15,13,02,10.20
2016,06,15,13,03,10.20
2016,06,15,13,04,10.30
2016,06,15,13,05,10.40
2016,06,15,13,06,10.30
2016,06,15,13,07,10.30
2016,06,15,13,08,10.30
2016,06,15,13,09,10.30
2016,06,15,13,10,10.30
2016,06,15,13,11,10.30
2016,06,15,13,12,10.30
2016,06,15,13,13,10.30
2016,06,15,13,14,10.40
2016,06,15,13,15,10.40
2016,06,15,13,16,10.60
2016,06,15,13,17,10.80
2016,06,15,13,18,11.10
2016,06,15,13,19,11.30
2016,06,15,13,20,11.40
2016,06,15,13,21,11.60
2016,06,15,13,22,11.70
2016,06,15,13,23,11.80
2016,06,15,13,24,11.80
2016,06,15,13,25,11.90
2016,06,15,13,26,11.90
2016,06,15,13,27,12.00
2016,06,15,13,28,12.00
2016,06,15,13,29,12.10
2016,06,15,13,30,12.20
2016,06,15,13,31,12.20
2016,06,15,13,32,12.40
2016,06,15,13,33,12.50
2016,06,15,13,34,12.60
2016,06,15,13,35,12.70
2016,06,15,13,36,12.80
2016,06,15,13,37,12.70
2016,06,15,13,38,12.70
2016,06,15,13,39,12.70
2016,06,15,13,40,12.80
2016,06,15,13,41,12.80
2016,06,15,13,42,12.80
2016,06,15,13,43,12.80
2016,06,15,13,44,12.80
2016,06,15,13,45,12.70
2016,06,15,13,46,12.60
2016,06,15,13,47,12.60
2016,06,15,13,48,12.50
2016,06,15,13,49,12.50
2016,06,15,13,50,12.50
2016,06,15,13,51,12.50
2016,06,15,13,52,12.50
2016,06,15,13,53,12.60
2016,06,15,13,54,12.70
2016,06,15,13,55,12.80
2016,06,15,13,56,12.90
2016,06,15,13,57,13.00
2016,06,15,13,58,13.10
2016,06,15,13,59,13.20
2016,06,15,14,00,13.30
2016,06,15,14,01,13.40
2016,06,15,14,02,13.50
2016,06,15,14,03,13.50
2016,06,15,14,04,13.60
2016,06,15,14,05,13.60
2016,06,15,14,06,13.50
2016,06,15,14,07,13.50
2016,06,15,14,08,13.50
2016,06,15,14,09,13.40
2016,06,15,14,10,13.30
2016,06,15,14,11,13.30
2016,06,15,14,12,13.20
2016,06,15,14,13,13.20
2016,06,15,14,14,13.10
2016,06,15,14,15,13.00
2016,06,15,14,16,12.90
2016,06,15,14,17,12.90
2016,06,15,14,18,12.80
2016,06,15,14,19,12.80
2016,06,15,14,20,12.80
2016,06,15,14,21,12.70
2016,06,15,14,22,12.70
2016,06,15,14,23,12.60
2016,06,15,14,24,12.60
2016,06,15,14,25,12.60
2016,06,15,14,26,12.50
2016,06,15,14,27,12.50
2016,06,15,14,28,12.40
2016,06,15,14,29,12.30
2016,06,15,14,30,12.30
2016,06,15,14,31,12.30
2016,06,15,14,32,12.30
2016,06,15,14,33,12.30
2016,06,15,14,34,12.30
2016,06,15,14,35,12.30
2016,06,15,14,36,12.30
2016,06,15,14,37,12.30
2016,06,15,14,38,12.30
2016,06,15,14,39,12.20
2016,06,15,14,40,12.20
2016,06,15,14,41,12.10
2016,06,15,14,42,12.10
2016,06,15,14,43,12.10
2016,06,15,14,44,12.10
2016,06,15,14,45,12.10
2016,06,15,14,46,12.10
2016,06,15,14,47,12.10
2016,06,15,14,48,12.10
2016,06,15,14,49,12.20
2016,06,15,14,50,12.20
2016,06,15,14,51,12.20
2016,06,15,14,52,12.20
2016,06,15,14,53,12.30
2016,06,15,14,54,12.30
2016,06,15,14,55,12.30
2016,06,15,14,56,12.30
2016,06,15,14,57,12.30
2016,06,15,14,58,12.30
2016,06,15,14,59,12.30
2016,06,15,15,00,12.30
2016,06,15,15,01,12.30
2016,06,15,15,02,12.30
2016,06,15,15,03,12.30
2016,06,15,15,04,12.30
2016,06,15,15,05,12.30
2016,06,15,15,06,12.30
2016,06,15,15,07,12.30
2016,06,15,15,08,12.30
2016,06,15,15,09,12.30
2016,06,15,15,10,12.30
2016,06,15,15,11,12.30
2016,06,15,15,12,12.30
2016,06,15,15,13,12.30
2016,06,15,15,14,12.30
2016,06,15,15,15,12.30
2016,06,15,15,16,12.30
2016,06,15,15,17,12.30
2016,06,15,15,18,12.20
2016,06,15,15,19,12.20
2016,06,15,15,20,12.20
2016,06,15,15,21,12.20
2016,06,15,15,22,12.20
2016,06,15,15,23,12.10
2016,06,15,15,24,12.10
2016,06,15,15,25,12.10
2016,06,15,15,26,12.10
2016,06,15,15,27,12.10
2016,06,15,15,28,12.10
2016,06,15,15,29,12.10
2016,06,15,15,30,12.10
2016,06,15,15,31,12.10
2016,06,15,15,32,12.10
2016,06,15,15,33,12.00
2016,06,15,15,34,12.00
2016,06,15,15,35,12.00
2016,06,15,15,36,12.00
2016,06,15,15,37,12.00
2016,06,15,15,38,12.00
2016,06,15,15,39,12.00
2016,06,15,15,40,12.00
2016,06,15,15,41,11.90
2016,06,15,15,42,11.90
2016,06,15,15,43,11.80
2016,06,15,15,44,11.80
2016,06,15,15,45,11.80
2016,06,15,15,46,11.80
2016,06,15,15,47,11.70
2016,06,15,15,48,11.70
2016,06,15,15,49,11.70
2016,06,15,15,50,11.70
2016,06,15,15,51,11.60
2016,06,15,15,52,11.60
2016,06,15,15,53,11.60
2016,06,15,15,54,11.60
2016,06,15,15,55,11.60
2016,06,15,15,56,11.60
2016,06,15,15,57,11.60
2016,06,15,15,58,11.60
2016,06,15,15,59,11.60
2016,06,15,16,00,11.60
2016,06,15,16,01,11.60
2016,06,15,16,02,11.60
2016,06,15,16,03,11.60
2016,06,15,16,04,11.60
2016,06,15,16,05,11.60
2016,06,15,16,06,11.60
2016,06,15,16,07,11.60
2016,06,15,16,08,11.60
2016,06,15,16,09,11.60
2016,06,15,16,10,11.70
2016,06,15,16,11,11.70
2016,06,15,16,12,11.80
2016,06,15,16,13,11.80
2016,06,15,16,14,11.80
2016,06,15,16,15,11.80
2016,06,15,16,16,11.80
2016,06,15,16,17,11.90
2016,06,15,16,18,11.90
2016,06,15,16,19,11.90
2016,06,15,16,20,12.00
2016,06,15,16,21,12.00
2016,06,15,16,22,12.00
2016,06,15,16,23,12.10
2016,06,15,16,24,12.10
2016,06,15,16,25,12.10
2016,06,15,16,26,12.20
2016,06,15,16,27,12.20
2016,06,15,16,28,12.20
2016,06,15,16,29,12.20
2016,06,15,16,30,12.10
2016,06,15,16,31,12.10
2016,06,15,16,32,12.10
2016,06,15,16,33,12.00
2016,06,15,16,34,12.00
2016,06,15,16,35,12.00
2016,06,15,16,36,12.00
2016,06,15,16,37,12.10
2016,06,15,16,38,12.10
2016,06,15,16,39,12.10
2016,06,15,16,40,12.20
2016,06,15,16,41,12.20
2016,06,15,16,42,12.20
2016,06,15,16,43,12.20
2016,06,15,16,44,12.30
2016,06,15,16,45,12.30
2016,06,15,16,46,12.30
2016,06,15,16,47,12.30
2016,06,15,16,48,12.30
2016,06,15,16,49,12.30
2016,06,15,16,50,12.30
2016,06,15,16,51,12.40
2016,06,15,16,52,12.50
2016,06,15,16,53,12.50
2016,06,15,16,54,12.50
2016,06,15,16,55,12.60
2016,06,15,16,56,12.60
2016,06,15,16,57,12.70
2016,06,15,16,58,12.70
2016,06,15,16,59,12.80
2016,06,15,17,00,12.80
2016,06,15,17,01,12.80
2016,06,15,17,02,12.90
2016,06,15,17,03,13.00
2016,06,15,17,04,13.00
2016,06,15,17,05,13.10
2016,06,15,17,06,13.10
2016,06,15,17,07,13.20
2016,06,15,17,08,13.20
2016,06,15,17,09,13.20
2016,06,15,17,10,13.20
2016,06,15,17,11,13.20
2016,06,15,17,12,13.20
2016,06,15,17,13,13.30
2016,06,15,17,14,13.30
2016,06,15,17,15,13.30
2016,06,15,17,16,13.30
2016,06,15,17,17,13.30
2016,06,15,17,18,13.40
2016,06,15,17,19,13.40
2016,06,15,17,20,13.40
2016,06,15,17,21,13.40
2016,06,15,17,22,13.50
2016,06,15,17,23,13.50
2016,06,15,17,24,13.50
2016,06,15,17,25,13.50
2016,06,15,17,26,13.50
2016,06,15,17,27,13.50
2016,06,15,17,28,13.50
2016,06,15,17,29,13.50
2016,06,15,17,30,13.50
2016,06,15,17,31,13.50
2016,06,15,17,32,13.50
2016,06,15,17,33,13.40
2016,06,15,17,34,13.40
2016,06,15,17,35,13.40
2016,06,15,17,36,13.40
2016,06,15,17,37,13.40
2016,06,15,17,38,13.40
2016,06,15,17,39,13.40
2016,06,15,17,40,13.40
2016,06,15,17,41,13.40
2016,06,15,17,42,13.40
2016,06,15,17,43,13.50
2016,06,15,17,44,13.50
2016,06,15,17,45,13.50
2016,06,15,17,46,13.50
2016,06,15,17,47,13.40